[[{"header":{"parameterUnit":"m.s-1","parameterCategory":1,"la1":30.2991,"la2":30.254,"lo1":-89.0895,"lo2":-89.0444,"dy":0.0017,"dx":0.0017,"nx":28,"ny":28,"refTime":"2023-08-28T21:00:00:Z","depth":0,"parameterNumber":2,"parameterNumberName":"U-component_of_WINDS"},"data":[0,0,0,0,0,0,0,0,0,0,0,0,0,0,0,0,0,0,0,0,0,0,0,0,0,0,0,0,0,0,0,0,0,0,0,0,0,0,0,0,0,0,0,0,0,0,0,0,0,0,0,0,0,0,0,0,0,0,-1.4316,-1.4317,0,-1.4432,-1.4434,-1.4435,-1.4466,-1.4466,-1.4465,-1.4464,-1.4586,-1.4589,-1.4593,0,0,0,0,0,0,0,0,0,0,0,0,0,-1.4124,-1.4127,-1.4316,-1.4317,-1.4319,-1.4432,-1.4434,-1.4435,-1.4466,-1.4465,-1.4465,-1.4464,-1.4584,-1.4589,-1.4594,0,0,0,0,0,0,0,0,0,0,0,0,0,-1.422,-1.4128,-1.4315,-1.4348,-1.4352,-1.4432,-1.4434,-1.4436,-1.4467,-1.4465,-1.4464,-1.4463,-1.4583,-1.4588,-1.4594,-1.4651,0,0,-1.4612,-1.4615,0,0,0,0,0,0,0,0,-1.4215,-1.4227,-1.4342,-1.4346,-1.435,-1.4434,-1.441,-1.4508,-1.4467,-1.4423,-1.4464,-1.4463,-1.4536,-1.4546,-1.457,-1.4657,-1.4662,-1.4613,-1.4616,-1.4619,-1.462,0,0,0,0,0,0,0,-1.4208,-1.4223,-1.4362,-1.4343,-1.4349,-1.4358,-1.437,-1.4429,-1.4484,-1.4427,-1.4429,-1.4443,-1.4538,-1.4564,-1.4573,-1.4664,-1.4612,-1.4618,-1.4621,-1.4623,-1.4804,-1.4805,0,0,0,0,0,0,-1.4195,-1.4217,-1.4358,-1.4365,-1.4279,-1.4362,-1.4376,-1.4408,-1.4483,-1.4494,-1.4443,-1.4444,-1.4555,-1.4566,-1.4577,-1.4649,-1.4619,-1.4624,-1.4627,-1.4803,-1.4805,-1.4806,0,0,0,0,0,0,-1.4191,-1.4208,-1.4353,-1.4292,-1.4311,-1.4366,-1.4402,-1.4411,-1.4437,-1.4496,-1.4506,-1.4459,-1.4554,-1.4569,-1.4633,-1.4654,-1.4627,-1.4632,-1.4801,-1.4803,-1.4805,-1.4793,0,0,0,0,0,0,-1.4185,-1.4206,-1.4227,-1.4292,-1.4314,-1.4406,-1.4403,-1.4414,-1.4446,-1.4448,-1.4514,-1.4524,-1.4555,-1.4624,-1.4638,-1.4661,-1.4636,-1.48,-1.4802,-1.4805,-1.4792,-1.4794,-1.4796,0,0,0,0,0,-1.4178,-1.4219,-1.4228,-1.4245,-1.4342,-1.4407,-1.442,-1.4454,-1.4448,-1.447,-1.4509,-1.4522,-1.4649,-1.463,-1.4647,-1.4672,-1.4799,-1.4802,-1.4804,-1.4791,-1.4794,-1.4796,0,0,0,0,0,0,-1.4156,-1.4228,-1.4239,-1.4302,-1.4348,-1.4412,-1.4441,-1.4456,-1.4505,-1.4504,-1.4546,-1.456,-1.4621,-1.4653,-1.463,-1.4731,-1.4724,-1.4731,-1.4708,-1.4711,-1.4714,-1.4705,-1.4641,0,0,0,0,0,-1.4158,-1.4204,-1.4265,-1.4315,-1.4338,-1.4385,-1.4415,-1.4437,-1.4487,-1.4507,-1.455,-1.4598,-1.465,-1.4682,-1.4733,-1.4797,-1.4812,-1.4822,-1.4825,-1.4826,-1.4831,-1.4869,-1.4874,-1.4816,-1.4816,-1.4816,0,0,-1.4164,-1.4209,-1.4236,-1.4312,-1.435,-1.4398,-1.4401,-1.4452,-1.4488,-1.4515,-1.4577,-1.461,-1.4668,-1.4732,-1.4762,-1.476,-1.4851,-1.483,-1.4831,-1.4835,-1.4872,-1.4878,-1.4883,-1.4818,-1.4817,-1.4817,0,0,-1.4198,-1.4236,-1.4282,-1.4321,-1.4378,-1.441,-1.4421,-1.4484,-1.4506,-1.457,-1.4591,-1.4636,-1.4723,-1.4762,-1.4794,-1.4845,-1.4859,-1.486,-1.4872,-1.4908,-1.4913,-1.4917,-1.4935,-1.4942,-1.4865,-1.4865,-1.4865,0,-1.4198,-1.4269,-1.4304,-1.4353,-1.4387,-1.4413,-1.4461,-1.4496,-1.4568,-1.4591,-1.4588,-1.4698,-1.4739,-1.4813,-1.4825,-1.485,-1.4864,-1.4852,-1.4909,-1.4914,-1.4918,-1.4936,-1.4943,-1.4865,-1.4865,-1.4865,-1.4865,0,-1.4266,-1.4315,-1.4346,-1.4413,-1.445,-1.4498,-1.4542,-1.4575,-1.4595,-1.4627,-1.4692,-1.4741,-1.4802,-1.4822,-1.4842,-1.49,-1.4897,-1.4901,-1.4894,-1.4923,-1.4941,-1.4948,-1.4864,-1.4865,-1.4865,-1.4865,0,0,-1.4289,-1.4375,-1.4386,-1.4417,-1.4484,-1.4523,-1.4573,-1.4632,-1.466,-1.471,-1.4753,-1.4827,-1.4831,-1.4867,-1.4892,-1.4923,-1.4961,-1.4924,-1.4926,-1.4929,-1.5028,-1.5025,-1.5032,-1.4971,-1.4972,-1.4974,-1.5024,0,-1.4331,-1.442,-1.4453,-1.4526,-1.4573,-1.4599,-1.4643,-1.4689,-1.4721,-1.4766,-1.4802,-1.4854,-1.4856,-1.4878,-1.491,-1.4949,-1.4981,-1.4946,-1.5013,-1.5014,-1.4997,-1.5041,-1.5037,-1.5082,-1.5031,-1.5032,-1.5033,0,-1.4392,-1.4441,-1.4518,-1.4579,-1.46,-1.4639,-1.4696,-1.4739,-1.4792,-1.4814,-1.4854,-1.4877,-1.4932,-1.4922,-1.4999,-1.4974,-1.5003,-1.5027,-1.503,-1.5037,-1.5025,-1.505,-1.5097,-1.5104,-1.5044,-1.5043,-1.5042,0,-1.4401,-1.4487,-1.4544,-1.457,-1.4643,-1.4669,-1.4701,-1.4753,-1.4787,-1.4838,-1.486,-1.4917,-1.4948,-1.4992,-1.503,-1.502,-1.5103,-1.5097,-1.5123,-1.5122,-1.5139,-1.5138,-1.5192,-1.5158,-1.5158,-1.5158,-1.5158,0,-1.4445,-1.4492,-1.4549,-1.4584,-1.4638,-1.4676,-1.4729,-1.4762,-1.4809,-1.4852,-1.4879,-1.4919,-1.4967,-1.5014,-1.5045,-1.5104,-1.5118,-1.5137,-1.5144,-1.5135,-1.5132,-1.5154,-1.5152,-1.516,-1.5159,-1.5159,-1.5159,0,-1.4464,-1.4504,-1.4569,-1.4632,-1.4649,-1.4686,-1.4741,-1.4777,-1.481,-1.4865,-1.488,-1.4933,-1.499,-1.5032,-1.5106,-1.5127,-1.519,-1.5197,-1.5171,-1.5175,-1.5199,-1.5196,-1.5269,-1.5281,-1.5239,-1.5239,-1.524,0,-1.4489,-1.4526,-1.4593,-1.4623,-1.4655,-1.4703,-1.4738,-1.4778,-1.4813,-1.4877,-1.4906,-1.4964,-1.5013,-1.5103,-1.5148,-1.5205,-1.5215,-1.5237,-1.5224,-1.5213,-1.5216,-1.5213,-1.5217,-1.5238,-1.5239,-1.5239,-1.5239,0,-1.453,-1.4548,-1.4596,-1.4652,-1.4692,-1.4738,-1.4784,-1.4808,-1.4856,-1.4895,-1.4953,-1.499,-1.5066,-1.5124,-1.5185,-1.522,-1.5238,-1.5243,-1.5252,-1.5242,-1.5226,-1.5235,-1.5176,-1.5241,-1.5241,-1.524,-1.524,-1.524,-1.4554,-1.4587,-1.464,-1.4693,-1.4732,-1.4774,-1.4812,-1.4849,-1.4898,-1.4962,-1.4983,-1.5043,-1.5097,-1.5181,-1.5216,-1.5264,-1.5265,-1.5278,-1.5281,-1.5284,-1.5283,-1.5218,-1.5276,-1.5276,-1.5276,-1.5276,-1.5276,0,-1.4596,-1.4631,-1.468,-1.4743,-1.4785,-1.4798,-1.485,-1.4885,-1.4937,-1.4985,-1.5032,-1.5099,-1.5156,-1.5206,-1.5265,-1.5295,-1.5305,-1.5309,-1.5307,-1.5315,-1.5279,-1.5266,-1.53,-1.53,-1.53,-1.53,-1.53,-1.53,-1.4624,-1.4681,-1.4706,-1.4784,-1.4819,-1.4877,-1.4906,-1.4946,-1.4985,-1.5058,-1.5105,-1.5137,-1.5186,-1.5249,-1.5302,-1.5316,-1.5337,-1.5339,-1.5355,-1.532,-1.5317,-1.5315,-1.5302,-1.5343,-1.5343,-1.5386,-1.5387,-1.5387]},{"header":{"parameterUnit":"m.s-1","parameterCategory":1,"la1":30.2991,"la2":30.254,"lo1":-89.0895,"lo2":-89.0444,"dy":0.0017,"dx":0.0017,"nx":28,"ny":28,"refTime":"2023-08-28T21:00:00:Z","depth":0,"parameterNumber":3,"parameterNumberName":"V-component_of_WINDS"},"data":[0,0,0,0,0,0,0,0,0,0,0,0,0,0,0,0,0,0,0,0,0,0,0,0,0,0,0,0,0,0,0,0,0,0,0,0,0,0,0,0,0,0,0,0,0,0,0,0,0,0,0,0,0,0,0,0,0,0,3.3918,3.3918,0,3.395,3.395,3.395,3.3972,3.3972,3.3972,3.3972,3.4002,3.4002,3.4003,0,0,0,0,0,0,0,0,0,0,0,0,0,3.3873,3.3874,3.3918,3.3918,3.3918,3.3949,3.395,3.395,3.3972,3.3972,3.3972,3.3972,3.4002,3.4002,3.4003,0,0,0,0,0,0,0,0,0,0,0,0,0,3.3897,3.3874,3.3918,3.3933,3.3935,3.3949,3.395,3.395,3.3972,3.3972,3.3972,3.3972,3.4001,3.4002,3.4003,3.4004,0,0,3.4006,3.4007,0,0,0,0,0,0,0,0,3.3896,3.3899,3.393,3.3932,3.3934,3.3957,3.3945,3.3968,3.3971,3.3957,3.3972,3.3972,3.3986,3.3989,3.3994,3.4006,3.4007,3.4006,3.4007,3.4007,3.4008,0,0,0,0,0,0,0,3.3894,3.3898,3.393,3.3931,3.3933,3.3937,3.3941,3.395,3.397,3.3959,3.396,3.3964,3.3987,3.3993,3.3995,3.4008,3.4006,3.4007,3.4008,3.4008,3.4022,3.4022,0,0,0,0,0,0,3.389,3.3896,3.3929,3.3931,3.3915,3.3938,3.3942,3.3949,3.397,3.3974,3.3964,3.3965,3.3991,3.3994,3.3996,3.3999,3.4007,3.4008,3.4009,3.4022,3.4022,3.4022,0,0,0,0,0,0,3.3889,3.3893,3.3928,3.3914,3.3919,3.3939,3.3946,3.395,3.3955,3.3974,3.3977,3.3966,3.3992,3.3995,3.4002,3.4,3.4009,3.4009,3.4022,3.4022,3.4022,3.4004,0,0,0,0,0,0,3.3888,3.3893,3.3894,3.3914,3.392,3.3934,3.3946,3.395,3.3957,3.3959,3.3977,3.398,3.3992,3.4001,3.4003,3.4002,3.401,3.4023,3.4022,3.4022,3.4005,3.4003,3.4002,0,0,0,0,0,3.3886,3.3887,3.3894,3.3898,3.3922,3.3934,3.3937,3.3952,3.3957,3.3958,3.397,3.3979,3.4,3.4001,3.4004,3.4003,3.4023,3.4022,3.4022,3.4006,3.4004,3.4002,0,0,0,0,0,0,3.3865,3.389,3.3898,3.3905,3.3918,3.3938,3.394,3.3949,3.396,3.3961,3.3978,3.3981,3.3987,3.3996,3.3997,3.4005,3.4013,3.4013,3.3999,3.3998,3.3996,3.3993,3.4011,0,0,0,0,0,3.3861,3.387,3.3891,3.3896,3.3902,3.392,3.3926,3.3936,3.3949,3.3954,3.3967,3.3978,3.3988,3.3993,3.4003,3.4007,3.4011,3.4007,3.4006,3.4004,3.4004,3.4007,3.4005,3.402,3.402,3.402,0,0,3.3853,3.3868,3.3872,3.3892,3.3903,3.3911,3.3924,3.3932,3.3938,3.3955,3.3963,3.3973,3.3987,3.3993,3.3996,3.4001,3.4001,3.4004,3.4002,3.4003,3.4006,3.4005,3.4003,3.402,3.402,3.402,0,0,3.3843,3.3855,3.386,3.3871,3.3888,3.39,3.3901,3.392,3.3928,3.3937,3.395,3.3957,3.3973,3.3982,3.3989,3.3983,3.3992,3.3986,3.3977,3.3979,3.3978,3.3977,3.3975,3.3974,3.3985,3.3985,3.3985,0,3.383,3.3844,3.3861,3.3869,3.3877,3.3894,3.3899,3.3909,3.3927,3.3932,3.3937,3.3957,3.3967,3.3976,3.3975,3.398,3.3981,3.3983,3.3977,3.3976,3.3976,3.3974,3.3973,3.3984,3.3985,3.3985,3.3985,0,3.3828,3.3837,3.3839,3.3858,3.3866,3.3873,3.389,3.3896,3.3906,3.3917,3.3926,3.394,3.3952,3.3955,3.3964,3.3965,3.3967,3.3974,3.3982,3.3973,3.3971,3.3971,3.3983,3.3984,3.3984,3.3984,0,0,3.3804,3.3833,3.3833,3.3842,3.3862,3.387,3.3876,3.389,3.3895,3.3907,3.3913,3.3926,3.3933,3.3941,3.3951,3.3954,3.3948,3.3961,3.3961,3.3957,3.3949,3.3943,3.3942,3.3954,3.3954,3.3954,3.3948,0,3.3796,3.3811,3.3827,3.3835,3.3844,3.386,3.3866,3.3879,3.389,3.3898,3.391,3.3919,3.3928,3.3933,3.3936,3.3948,3.3946,3.3949,3.3959,3.3959,3.3954,3.3941,3.3934,3.3928,3.3947,3.3947,3.3947,0,3.3789,3.3802,3.3811,3.3831,3.3835,3.384,3.3854,3.3862,3.3877,3.3885,3.3894,3.3905,3.3913,3.392,3.393,3.3932,3.3937,3.3943,3.3943,3.3944,3.3952,3.3941,3.3926,3.3924,3.3946,3.3946,3.3946,0,3.377,3.3789,3.3798,3.3805,3.3828,3.3831,3.3841,3.3856,3.3863,3.3875,3.388,3.3892,3.3898,3.3907,3.3921,3.3925,3.393,3.3938,3.3936,3.3935,3.3935,3.3935,3.392,3.394,3.394,3.394,3.394,0,3.3759,3.3764,3.379,3.3794,3.38,3.3819,3.3824,3.3835,3.3848,3.3855,3.387,3.3876,3.3895,3.3903,3.3915,3.3921,3.3924,3.393,3.3933,3.3928,3.3927,3.3931,3.3932,3.3939,3.3939,3.3939,3.394,0,3.3738,3.3756,3.3766,3.3788,3.3793,3.3797,3.3815,3.382,3.3833,3.3841,3.3844,3.3863,3.3873,3.3889,3.3903,3.3911,3.3915,3.392,3.3911,3.3912,3.3909,3.3908,3.3895,3.3894,3.3915,3.3915,3.3914,0,3.373,3.3734,3.3757,3.3764,3.3773,3.3783,3.3791,3.3809,3.3816,3.3834,3.3836,3.3848,3.3859,3.3874,3.3888,3.39,3.3905,3.3899,3.3906,3.3902,3.3904,3.3903,3.3904,3.3897,3.3897,3.3897,3.3897,0,3.3713,3.3722,3.3733,3.3747,3.3756,3.3768,3.3781,3.3785,3.3805,3.3813,3.3824,3.3832,3.3848,3.3859,3.3873,3.3882,3.3892,3.3895,3.3894,3.3889,3.3883,3.3886,3.3905,3.3894,3.3895,3.3895,3.3895,3.3895,3.3698,3.3703,3.372,3.3732,3.3743,3.3755,3.3761,3.3775,3.3785,3.38,3.381,3.382,3.3835,3.3854,3.3863,3.3871,3.3876,3.3875,3.3875,3.3875,3.3873,3.3883,3.3874,3.3874,3.3874,3.3874,3.3874,0,3.3681,3.3693,3.3704,3.3722,3.3731,3.3742,3.3757,3.3763,3.3773,3.3786,3.3797,3.381,3.3821,3.3837,3.3849,3.3852,3.3857,3.3855,3.3854,3.3856,3.3869,3.3867,3.385,3.385,3.385,3.385,3.385,3.385,3.3673,3.3682,3.3693,3.3708,3.372,3.3731,3.3738,3.3749,3.376,3.3774,3.3784,3.3795,3.3809,3.3822,3.3833,3.3837,3.3841,3.3836,3.3842,3.3853,3.3855,3.3857,3.3856,3.3837,3.3837,3.3829,3.3829,3.3829]}]]